Погода в Подах

Россия / Астраханская область     48°15′13″N   45°53′17″E
темп.,
°C
ветер,
м/с
пор.,
м/с
влажн.,
%
обл.,
%
осадки,
мм/ч
давл.,
гПа
погр.,
м
16 мая, вс
вс1601:00+20ююв49361 0.0 1015130
04:00+18юв454544 0.0 101563
07:00+20вюв3645100 0.0 1015131
10:00+28юв57295 0.0 1015555
13:00+33юв81019100 0.0 10143154
16:00+33юв910185 0.0 10133421
19:00+29юв712245 0.0 1012390
22:00+23вюв613225 0.0 1013219
17 мая, пн
пн1701:00+20вюв411305 0.0 1013172
04:00+20в513295 0.0 1012181
07:00+20вюв612382 0.0 1012249
10:00+28юв812255 0.0 1013822
13:00+32юв1011155 0.0 10123012
16:00+33юв810145 0.0 10113349
19:00+29вюв610215 0.0 1010260
22:00+23вюв48255 0.0 1012103
18 мая, вт
вт1801:00+21в511241 0.0 1011150
04:00+21в614245 0.0 1009245
07:00+21вюв717320 0.0 1009346
10:00+29юв1015224 0.0 10091225
13:00+34юв1114141 0.0 10083275
16:00+34ююв10131589 0.0 10073784
19:00+27ююв81524100 0.0 1008496
22:00+27юв71519100 0.0 1008536
19 мая, ср
ср1901:00+23ююв5113166 0.0 1008304
04:00+18ю487988 0.0 1009200
07:00+18зюз468091 0.0 1011340
10:00+22з6757100 0.0 1011805
13:00+25зсз5541100 0.0 10131605
16:00+23з5653100 0.0 1013788
19:00+23зюз6847100 0.0 1013850
22:00+18зюз48540 0.0 1014144
20 мая, чт
чт2001:00+15з39770 0.0 1016245
04:00+13з34800 0.0 101767
07:00+16з23670 0.0 1018174
10:00+21зюз34442 0.0 10181176
13:00+24зюз353242 0.0 10181862
16:00+25зюз1226100 0.0 10172000
19:00+25в123291 0.0 1016740
22:00+20в333599 0.0 101636